Flag for Canada Weather past 2 weeks in Moose Jaw, Saskatchewan, Canada

Now
81 °F

Broken clouds.


Feels Like: 80 °F
Forecast: N/A
Wind: 20 mph from North

Location: Regina Weather Station

Current Time: Aug 1, 2015 at 5:13:19 PM

Latest Report: Aug 1, 2015 at 4:00 PM


Visibility: 15 mi

Pressure: 29.83 "Hg (27.99 "Hg at 560m altitude)

Humidity: 39%

Dew point: 54 °F

Location of Moose JawLocation

Historic Weather in Moose Jaw — Graph

°F

Moose Jaw temperature yesterday

Maximum temperature yesterday: 81 °F (at 3:00 PM)
Minimum temperature yesterday: 48 °F (at 5:00 AM)
Average temperature yesterday: 66 °F

Past Weeks' High & Low Weather Summary

 TemperatureHumidityPressure
High90 °F (Jul 25, 4:00 PM)100% (Jul 18, 2:00 AM)30.19 "Hg (Jul 18, 2:00 AM)
Low48 °F (Jul 20, 3:00 AM)25% (Jul 25, 5:00 PM)29.27 "Hg (Jul 28, 11:00 AM)
Average66 °F71%29.84 "Hg
* Reported Jul 17 4:00 PM — Aug 1 4:00 PM, Moose Jaw, Weather by CustomWeather, © 2015

Note: Actual official high and low records may vary slightly from our data, if they occured in-between our weather recording intervals... More about our weather records

Advertising

Moose Jaw weather history for previous 24 hours

 ConditionsComfort  
Time TempWeatherWind HumidityBarometerVisibility
4:00 PM
Sat, Aug 1
81 °FBroken clouds.20 mph39%29.83 "Hg15 mi
3:00 PM84 °FPassing clouds.16 mph43%29.81 "Hg15 mi
2:00 PM84 °FPassing clouds.7 mph40%29.80 "Hg15 mi
1:00 PM82 °FPassing clouds.8 mph42%29.81 "Hg15 mi
12:00 PM84 °FPartly sunny.3 mph40%29.84 "Hg15 mi
11:00 AM81 °FPassing clouds.2 mph48%29.85 "Hg15 mi
10:00 AM79 °FPassing clouds.2 mph48%29.87 "Hg15 mi
9:00 AM70 °FScattered clouds.7 mph60%29.88 "Hg15 mi
8:00 AM64 °FScattered clouds.7 mph68%29.90 "Hg15 mi
7:00 AM59 °FPartly sunny.8 mph77%29.91 "Hg15 mi
6:00 AM54 °FPassing clouds.7 mph88%29.92 "Hg15 mi
5:00 AM54 °FClear.8 mph88%29.93 "Hg15 mi
4:00 AM54 °FClear.9 mph88%29.95 "Hg15 mi
3:00 AM54 °FClear.9 mph88%29.97 "Hg15 mi
2:00 AM54 °FClear.8 mph94%30.00 "Hg15 mi
1:00 AM54 °FClear.6 mph94%30.03 "Hg15 mi
12:00 AM54 °FClear.3 mph88%30.04 "Hg15 mi
11:00 PM
Fri, Jul 31
57 °FClear.3 mph94%30.04 "Hg15 mi
10:00 PM63 °FPassing clouds.No wind73%30.04 "Hg15 mi
9:00 PM66 °FPassing clouds.2 mph64%30.04 "Hg15 mi
8:00 PM73 °FPassing clouds.3 mph44%30.04 "Hg15 mi
7:00 PM81 °FPassing clouds.3 mph34%30.04 "Hg15 mi
6:00 PM81 °FPassing clouds.3 mph34%30.06 "Hg15 mi
5:00 PM81 °FPassing clouds.7 mph30%30.09 "Hg15 mi
Weather by CustomWeather, © 2015

See weather overviewHow to use our weather pages